This is the latest recevied weather packets stored in our database for station/object KU9TRY. If no packets are shown the sender has not sent any weather packets the latest 10 day(s).
| Time | Temp. | Humidity | Pressure | Rain* | Wind** | Luminosity | Snow |
|---|---|---|---|---|---|---|---|
| 1787926866 | 27.22° C | 74% | 1018.9 hPa | 0 mm | - | 220 W/m² | - |
| 1787926561 | 26.67° C | 77% | 1018.7 hPa | 0 mm | - | 543 W/m² | - |
| 1787926259 | 26.11° C | 76% | 1018.7 hPa | 0 mm | - | 514 W/m² | - |
| 1787925954 | 25.56° C | 79% | 1018.9 hPa | 0 mm | - | 488 W/m² | - |
| 1787925648 | 25.56° C | 80% | 1018.8 hPa | 0 mm | - | 467 W/m² | - |
| 1787925343 | 25° C | 81% | 1018.9 hPa | 0 mm | - | 442 W/m² | - |
| 1787925042 | 24.44° C | 83% | 1018.8 hPa | 0 mm | - | 249 W/m² | - |
| 1787924737 | 23.89° C | 85% | 1018.9 hPa | 0 mm | - | 121 W/m² | - |
| 1787924437 | 23.89° C | 85% | 1018.8 hPa | 0 mm | - | 111 W/m² | - |
| 1787924133 | 23.89° C | 85% | 1018.7 hPa | 0 mm | - | 198 W/m² | - |
| 1787923827 | 23.33° C | 86% | 1018.8 hPa | 0 mm | - | 115 W/m² | - |
| 1787923527 | 23.33° C | 88% | 1018.7 hPa | 0 mm | - | 100 W/m² | - |
| 1787923222 | 22.78° C | 88% | 1018.8 hPa | 0 mm | - | 123 W/m² | - |
| 1787922918 | 22.78° C | 89% | 1018.8 hPa | 0 mm | - | 119 W/m² | - |
| 1787922617 | 22.22° C | 91% | 1018.6 hPa | 0 mm | - | 108 W/m² | - |
| 1787922316 | 21.67° C | 92% | 1018.6 hPa | 0 mm | - | 104 W/m² | - |
| 1787922014 | 21.67° C | 92% | 1018.8 hPa | 0 mm | - | 74 W/m² | - |
| 1787921709 | 21.11° C | 93% | 1018.9 hPa | 0 mm | - | 78 W/m² | - |
| 1787921408 | 21.11° C | 94% | 1018.6 hPa | 0 mm | - | 78 W/m² | - |
| 1787921103 | 21.11° C | 94% | 1018.5 hPa | 0 mm | - | 80 W/m² | - |
| 1787920803 | 20.56° C | 95% | 1018.7 hPa | 0 mm | - | 72 W/m² | - |
| 1787920498 | 20.56° C | 95% | 1018.6 hPa | 0 mm | - | 68 W/m² | - |
| 1787920195 | 20° C | 96% | 1018.5 hPa | 0 mm | - | 61 W/m² | - |
| 1787919891 | 20° C | 97% | 1018.6 hPa | 0 mm | - | 57 W/m² | - |
| 1787919589 | 19.44° C | 98% | 1018.4 hPa | 0 mm | - | 53 W/m² | - |
* Rain latest hour (hover to see other rain measurements)
** Current wind speed in m/s (hover to see current wind gust speed)